User: anonymous
Location: Vancouver
(49.2500°N, 123.1330°W)
Time: 08:52:34
(UTC-07:00)
Language:

CZ-2C R/B - Orbit

View from above orbital plane
View from above orbital plane
View from above satellite
View from above satellite

Ground track
Ground track

The orbit data is extracted from the following two-line orbital elements,

1 28480U 04046B   14109.53310862  .00000249  00000-0  11012-3 0  3165
2 28480 098.0820 270.0712 0143069 035.9476 004.0346 14.25282118489739
Epoch (UTC): 19 April 2014 12:47:40
Eccentricity: 0.0143069
inclination: 98.0820°
perigee height: 705 km
apogee height: 910 km
right ascension of ascending node: 270.0712°
argument of perigee: 35.9476°
revolutions per day: 14.25282118
mean anomaly at epoch: 4.0346°
orbit number at epoch: 48973

The dashed part of the orbit path shows where the satellite is in the earth's shadow,  

DLR